Location: *
(42.5628°N, 2.3633°E)
Time: 19:27:58
(UTC+00:00)

Cosmos 1602 Rocket - Pass Details

Date: 30 March 2020
Orbit: 603 x 634 km, 82.5° (Epoch: 30 May)

Event Time Altitude Azimuth Distance (km) Brightness Sun altitude
Rises 19:12:10 0° 360° (N) 2,934 7.3 -11.2°
Reaches altitude 10° 19:14:35 10° 9° (N) 2,018 6.3 -11.6°
Maximum altitude 19:18:43 36° 76° (ENE) 998 4.2 -12.3°
Enters shadow 19:21:50 16° 137° (SE) 1,652 5.2 -12.9°
